, LA

(GMT )
High Island 179A

Weather History for KXIH - December, 2012

Change the Weather History Date:

Tuesday, December 4, 2012

  Actual Average Record
Temperature  
Mean Temperature 70 °F -  
Max Temperature 77 °F - - ()
Min Temperature 64 °F - - ()
Cooling Degree Days 6    
Growing Degree Days 20 (Base 50)    
Moisture  
Dew Point 68 °F    
Average Humidity 89    
Maximum Humidity 94    
Minimum Humidity 78    
Precipitation  
Precipitation 0.00 in - - ()
Sea Level Pressure  
Sea Level Pressure 30.09 in    
Wind  
Wind Speed 11 mph (South)    
Max Wind Speed 34 mph    
Max Gust Speed 31 mph    
Visibility 8 miles    
Events      
Averages and records for this station are not official NWS values.
T = Trace of Precipitation, MM = Missing Value Source: NWS Daily Summary

Daily Weather History Graph

Daily Weather History Graph

Search for Another Location

Airport or City:

Trip Planner

Search our weather history database for the weather conditions in past years. The results will help you decide how hot, cold, wet, or windy it might be!

Date:

Astronomy

Dec. 04, 2012 Rise Set
Actual Time 6:57 AM CST 5:19 PM CST
Civil Twilight 6:31 AM CST 5:45 PM CST
Nautical Twilight 6:02 AM CST 6:14 PM CST
Astronomical Twilight 5:33 AM CST 6:43 PM CST
Moon 10:50 PM CST (12/4) 11:07 AM CST (12/4)
Length of Visible Light 11h 14m
Length of Day
10h 22m
Waning Gibbous, 69% of the Moon is Illuminated
Dec 4
Waning Gibbous
Dec 6
Last Quarter
Dec 13
New
Dec 19
First Quarter
Dec 28
Full

Hourly Weather History & Observations

Time (CST) Temp. Dew Point Humidity Pressure Visibility Wind Dir Wind Speed Gust Speed Precip Events Conditions
12:15 AM 71.6 °F 68.0 °F 88% 30.04 in 10.0 mi South 17.3 mph - N/A   Unknown
12:35 AM 71.6 °F 68.0 °F 88% 30.04 in 10.0 mi South 17.3 mph - N/A   Unknown
12:55 AM 71.6 °F 68.0 °F 88% 30.04 in 10.0 mi South 15.0 mph - N/A   Partly Cloudy
1:15 AM 71.6 °F 68.0 °F 88% 30.04 in 10.0 mi South 13.8 mph - N/A   Clear
1:35 AM 71.6 °F 68.0 °F 88% 30.04 in 9.0 mi South 15.0 mph - N/A   Clear
1:55 AM 71.6 °F 69.8 °F 94% 30.04 in 9.0 mi South 12.7 mph - N/A   Unknown
2:15 AM 71.6 °F 68.0 °F 88% 30.04 in 9.0 mi South 12.7 mph - N/A   Unknown
2:35 AM 71.6 °F 69.8 °F 94% 30.04 in 10.0 mi SSE 6.9 mph 15.0 mph N/A   Unknown
2:55 AM 71.6 °F 69.8 °F 94% 30.05 in 9.0 mi South 11.5 mph - N/A   Unknown
3:15 AM 71.6 °F 69.8 °F 94% 30.04 in 9.0 mi South 12.7 mph - N/A   Unknown
3:35 AM 71.6 °F 69.8 °F 94% 30.04 in 9.0 mi South 15.0 mph - N/A   Unknown
3:55 AM 71.6 °F 69.8 °F 94% 30.06 in 8.0 mi South 10.4 mph - N/A   Unknown
4:15 AM 71.6 °F 69.8 °F 94% 30.07 in 8.0 mi South 8.1 mph - N/A   Unknown
4:35 AM 71.6 °F 69.8 °F 94% 30.06 in 7.0 mi SSE 5.8 mph - N/A   Unknown
4:55 AM 71.6 °F 69.8 °F 94% 30.06 in 7.0 mi South 5.8 mph - N/A   Unknown
5:15 AM 71.6 °F 69.8 °F 94% 30.05 in 8.0 mi South 11.5 mph - N/A   Unknown
5:35 AM 71.6 °F 69.8 °F 94% 30.05 in 8.0 mi SSW 9.2 mph - N/A   Unknown
5:55 AM 71.6 °F 69.8 °F 94% 30.07 in 7.0 mi South 9.2 mph - N/A   Unknown
6:15 AM 71.6 °F 69.8 °F 94% 30.08 in 8.0 mi South 6.9 mph - N/A   Unknown
6:35 AM 71.6 °F 69.8 °F 94% 30.09 in 9.0 mi South 4.6 mph - N/A   Unknown
6:55 AM 73.4 °F 69.8 °F 88% 30.09 in 10.0 mi South 6.9 mph - N/A   Unknown
7:15 AM 71.6 °F 69.8 °F 94% 30.11 in 8.0 mi SE 6.9 mph - N/A   Unknown
7:35 AM 71.6 °F 69.8 °F 94% 30.12 in 7.0 mi SSE 6.9 mph - N/A   Unknown
7:55 AM 71.6 °F 69.8 °F 94% 30.12 in 6.0 mi SE 10.4 mph - N/A   Scattered Clouds
8:15 AM 71.6 °F 69.8 °F 94% 30.12 in 6.0 mi SSE 8.1 mph - N/A   Scattered Clouds
8:35 AM 73.4 °F 69.8 °F 88% 30.12 in 8.0 mi SSE 9.2 mph - N/A   Partly Cloudy
8:55 AM 73.4 °F 69.8 °F 88% 30.13 in 8.0 mi SSE 9.2 mph - N/A   Clear
9:15 AM 73.4 °F 68.0 °F 83% 30.13 in 8.0 mi SSE 9.2 mph - N/A   Clear
9:35 AM 73.4 °F 69.8 °F 88% 30.14 in 8.0 mi South 9.2 mph - N/A   Clear
9:55 AM 73.4 °F 69.8 °F 88% 30.14 in 8.0 mi South 11.5 mph - N/A   Partly Cloudy
10:15 AM 73.4 °F 69.8 °F 88% 30.14 in 7.0 mi South 11.5 mph - N/A   Partly Cloudy
10:35 AM 73.4 °F 69.8 °F 88% 30.15 in 7.0 mi South 9.2 mph - N/A   Scattered Clouds
10:55 AM 73.4 °F 69.8 °F 88% 30.15 in 8.0 mi SSE 8.1 mph - N/A   Mostly Cloudy
11:15 AM 73.4 °F 68.0 °F 83% 30.14 in 8.0 mi SSE 8.1 mph - N/A   Scattered Clouds
11:35 AM 73.4 °F 69.8 °F 88% 30.14 in 9.0 mi SSE 5.8 mph 11.5 mph N/A   Partly Cloudy
11:55 AM 75.2 °F 69.8 °F 83% 30.12 in 9.0 mi South 10.4 mph - N/A   Clear
12:15 PM 75.2 °F 69.8 °F 83% 30.11 in 9.0 mi SSW 5.8 mph - N/A   Clear
12:35 PM 77.0 °F 69.8 °F 78% 30.09 in 10.0 mi South 8.1 mph - N/A   Clear
12:55 PM 75.2 °F 69.8 °F 83% 30.08 in 10.0 mi SSW 4.6 mph 11.5 mph N/A   Clear
1:15 PM 77.0 °F 69.8 °F 78% 30.07 in 9.0 mi SSW 9.2 mph - N/A   Clear
1:35 PM 75.2 °F 69.8 °F 83% 30.07 in 9.0 mi SW 8.1 mph - N/A   Clear
1:55 PM 75.2 °F 69.8 °F 83% 30.07 in 9.0 mi SSW 4.6 mph - N/A   Clear
2:15 PM 75.2 °F 69.8 °F 83% 30.07 in 9.0 mi SSW 4.6 mph 11.5 mph N/A   Clear
2:35 PM 75.2 °F 69.8 °F 83% 30.07 in 9.0 mi SW 8.1 mph - N/A   Clear
2:55 PM 75.2 °F 69.8 °F 83% 30.06 in 10.0 mi SW 8.1 mph - N/A   Clear
3:15 PM 75.2 °F 69.8 °F 83% 30.06 in 9.0 mi WSW 5.8 mph - N/A   Clear
3:35 PM 73.4 °F 69.8 °F 88% 30.06 in 9.0 mi Calm Calm - N/A   Clear
3:55 PM 73.4 °F 69.8 °F 88% 30.06 in 9.0 mi West 3.5 mph - N/A   Clear
4:15 PM 73.4 °F 69.8 °F 88% 30.07 in 9.0 mi Calm Calm - N/A   Clear
4:35 PM 71.6 °F 69.8 °F 94% 30.10 in 7.0 mi Calm Calm - N/A   Partly Cloudy
4:55 PM 71.6 °F 69.8 °F 94% 30.11 in 7.0 mi Calm Calm - N/A   Mostly Cloudy
5:15 PM 71.6 °F 69.8 °F 94% 30.10 in 8.0 mi East 6.9 mph - N/A   Mostly Cloudy
5:35 PM 64.4 °F 62.6 °F 94% 30.09 in 3.0 mi NE 34.5 mph - N/A   Mist
5:55 PM 66.2 °F 62.6 °F 88% 30.13 in 3.0 mi NNE 25.3 mph 31.1 mph N/A   Mist
6:15 PM 66.2 °F 62.6 °F 88% 30.12 in 2.0 mi North - - N/A   Overcast
6:35 PM 66.2 °F 62.6 °F 88% 30.11 in 4.0 mi North - - N/A   Overcast
6:55 PM 66.2 °F 62.6 °F 88% 30.10 in 4.0 mi North - - N/A   Overcast
7:15 PM 66.2 °F 62.6 °F 88% 30.12 in 5.0 mi North - - N/A   Mostly Cloudy
7:35 PM 66.2 °F 62.6 °F 88% 30.12 in 5.0 mi North - - N/A   Overcast
7:55 PM 66.2 °F 62.6 °F 88% 30.11 in 5.0 mi North - - N/A   Mist
8:15 PM 66.2 °F 62.6 °F 88% 30.13 in 4.0 mi North - - N/A   Mist
8:35 PM 66.2 °F 62.6 °F 88% 30.16 in 4.0 mi North - - N/A   Mostly Cloudy
8:55 PM 66.2 °F 62.6 °F 88% 30.17 in 3.0 mi North - - N/A   Overcast
9:15 PM 66.2 °F 62.6 °F 88% 30.06 in 3.0 mi North - - N/A   Overcast
9:35 PM 66.2 °F 62.6 °F 88% 30.12 in 7.0 mi North - - N/A   Scattered Clouds
9:55 PM 66.2 °F 62.6 °F 88% 30.12 in 10.0 mi North - - N/A   Partly Cloudy
10:15 PM 66.2 °F 62.6 °F 88% 30.13 in 10.0 mi North - - N/A   Mostly Cloudy
10:35 PM 66.2 °F 62.6 °F 88% 30.12 in 10.0 mi North - - N/A   Overcast
10:55 PM 66.2 °F 62.6 °F 88% 30.11 in 10.0 mi North - - N/A   Overcast
11:15 PM 66.2 °F 62.6 °F 88% 30.10 in 10.0 mi North - - N/A   Unknown
11:35 PM 66.2 °F 62.6 °F 88% 30.11 in 10.0 mi North - - N/A   Unknown
11:55 PM 66.2 °F 62.6 °F 88% 30.11 in 10.0 mi North - - N/A   Unknown